This is the latest recevied weather packets stored in our database for station/object KI5RAB. If no packets are shown the sender has not sent any weather packets the latest 10 day(s).
| Time | Temp. | Humidity | Pressure | Rain* | Wind** | Luminosity | Snow |
|---|---|---|---|---|---|---|---|
| 1778034952 | 26.67° C | 82% | 1010.2 hPa | 0 mm | - | 0 W/m² | - |
| 1778034650 | 26.67° C | 82% | 1010 hPa | 0 mm | - | 0 W/m² | - |
| 1778034347 | 27.22° C | 81% | 1010.1 hPa | 0 mm | - | 0 W/m² | - |
| 1778034044 | 27.22° C | 81% | 1010 hPa | 0 mm | - | 0 W/m² | - |
| 1778033741 | 27.78° C | 80% | 1010.1 hPa | 0 mm | - | 0 W/m² | - |
| 1778033439 | 27.78° C | 79% | 1010 hPa | 0 mm | - | 0 W/m² | - |
| 1778033136 | 27.78° C | 78% | 1010 hPa | 0 mm | - | 0 W/m² | - |
| 1778032833 | 27.78° C | 77% | 1009.8 hPa | 0 mm | - | 0 W/m² | - |
| 1778032531 | 27.78° C | 77% | 1009.7 hPa | 0 mm | - | 0 W/m² | - |
| 1778032227 | 28.33° C | 76% | 1009.6 hPa | 0 mm | - | 0 W/m² | - |
| 1778031925 | 28.33° C | 75% | 1009.6 hPa | 0 mm | - | 0 W/m² | - |
| 1778031621 | 28.33° C | 75% | 1009.5 hPa | 0 mm | - | 0 W/m² | - |
| 1778031319 | 28.33° C | 75% | 1009.5 hPa | 0 mm | - | 0 W/m² | - |
| 1778031016 | 28.33° C | 75% | 1009.4 hPa | 0 mm | - | 0 W/m² | - |
| 1778030711 | 28.89° C | 74% | 1009.2 hPa | 0 mm | - | 0 W/m² | - |
| 1778030409 | 28.89° C | 74% | 1009.1 hPa | 0 mm | - | 0 W/m² | - |
| 1778030106 | 28.89° C | 73% | 1009.2 hPa | 0 mm | - | 1 W/m² | - |
| 1778029802 | 28.89° C | 73% | 1009.1 hPa | 0 mm | - | 2 W/m² | - |
| 1778029502 | 28.89° C | 73% | 1008.9 hPa | 0 mm | - | 3 W/m² | - |
| 1778029197 | 28.89° C | 72% | 1008.9 hPa | 0 mm | - | 7 W/m² | - |
| 1778028895 | 29.44° C | 72% | 1008.9 hPa | 0 mm | - | 10 W/m² | - |
| 1778028590 | 28.89° C | 72% | 1008.8 hPa | 0 mm | - | 12 W/m² | - |
| 1778028289 | 29.44° C | 72% | 1008.7 hPa | 0 mm | - | 14 W/m² | - |
| 1778027984 | 29.44° C | 72% | 1008.9 hPa | 0 mm | - | 19 W/m² | - |
| 1778027681 | 29.44° C | 71% | 1008.9 hPa | 0 mm | - | 29 W/m² | - |
* Rain latest hour (hover to see other rain measurements)
** Current wind speed in m/s (hover to see current wind gust speed)